Location: Unspecified
(43.4680°N, 87.1740°E)
Time: 21:23:37
(UTC+00:00)

Cosmos 1844 Rocket - Pass Details

Date: 17 April 2021
Orbit: 825 x 844 km, 71.0° (Epoch: 11 May)

Event Time Altitude Azimuth Distance (km) Brightness Sun altitude
Exits shadow 20:33:20 18° 303° (WNW) 1,902 4.4 -26.8°
Maximum altitude 20:33:59 19° 313° (NW) 1,885 4.5 -26.7°
Drops below altitude 10° 20:37:51 10° 357° (N) 2,436 5.6 -26.3°
Sets 20:41:04 0° 15° (NNE) 3,375 6.8 -25.9°
